Temp
-11 -11 -11 -11 -11 -11 -10 -9 -9 -9 -9 -9 -9 -9 -10 -10 -10 -10 -9 -10 -10 -10 -10 -10 -10 -10 -10 -10 -10 -10 -8 -8 -8 -8 -9 -11 -8 -10 -10 -10 -10 -9 -10 -10 -9
-11 -11 -11 -11 -11 -11 -11 -11 -10 -10 -9 -9 -9 -9 -9 -9 -10 -10 -10 -10 -10 -10 -10 -11 -11 -11 -10 -10 -10 -10 -9 -9 -9 -9 -9 -11 -8 -10 -10 -10 -9 -10 -9 -10 -10
-11 -11 -11 -11 -11 -11 -11 -11 -11 -11 -10 -10 -9 -9 -9 -9 -10 -10 -10 -10 -11 -11 -10 -10 -11 -11 -10 -10 -9 -9 -8 -9 -9 -9 -10 -10 -10 -9 -10 -10 -10 -10 -9 -9 -10
-11 -11 -11 -11 -11 -11 -11 -11 -11 -11 -11 -11 -10 -10 -9 -9 -9 -9 -10 -10 -10 -11 -11 -11 -11 -11 -10 -10 -10 -11 -10 -10 -10 -10 -11 -10 -11 -10 -10 -9 -10 -10 -10 -9 -9
-12 -12 -11 -12 -12 -11 -11 -11 -11 -11 -11 -11 -11 -11 -11 -10 -9 -10 -10 -10 -10 -11 -12 -11 -11 -11 -11 -11 -12 -10 -10 -10 -10 -10 -10 -10 -10 -10 -10 -10 -10 -10 -10 -10 -10
-12 -12 -12 -12 -12 -12 -12 -12 -11 -11 -11 -11 -11 -11 -11 -11 -11 -11 -10 -9 -10 -11 -11 -11 -11 -11 -11 -11 -11 -10 -11 -10 -11 -10 -10 -10 -10 -9 -9 -10 -9 -10 -10 -10 -10
-12 -12 -12 -12 -12 -12 -12 -12 -11 -11 -12 -11 -11 -11 -11 -11 -10 -11 -11 -11 -10 -11 -11 -11 -12 -12 -11 -11 -10 -10 -11 -11 -10 -10 -10 -11 -9 -8 -8 -10 -11 -11 -10 -10 -10
-12 -12 -12 -12 -12 -12 -12 -12 -12 -12 -11 -11 -11 -11 -11 -11 -11 -11 -11 -11 -11 -11 -11 -11 -12 -12 -11 -11 -11 -11 -11 -10 -8 -10 -10 -12 -6 -8 -10 -10 -10 -11 -11 -10 -10
-13 -12 -12 -12 -12 -12 -12 -12 -12 -11 -11 -11 -11 -11 -11 -11 -11 -11 -11 -11 -11 -11 -11 -12 -12 -12 -12 -11 -11 -11 -9 -9 -8 -11 -11 -12 -6 -9 -10 -11 -10 -10 -10 -9 -9
-13 -12 -12 -12 -12 -11 -11 -11 -11 -11 -11 -11 -11 -11 -11 -11 -11 -11 -11 -11 -11 -11 -11 -11 -11 -11 -11 -11 -10 -10 -9 -9 -9 -10 -11 -11 -8 -9 -10 -10 -11 -10 -9 -9 -9
-13 -12 -12 -11 -11 -11 -11 -11 -11 -11 -11 -11 -10 -11 -11 -11 -11 -11 -11 -11 -11 -11 -11 -11 -11 -10 -10 -11 -10 -11 -10 -10 -10 -11 -11 -11 -10 -9 -10 -10 -10 -9 -9 -9 -9
-13 -12 -12 -11 -11 -11 -11 -12 -13 -13 -13 -19 -16 -15 -12 -14 -11 -11 -12 -12 -12 -11 -11 -11 -10 -10 -11 -11 -11 -11 -11 -10 -10 -11 -11 -11 -11 -9 -9 -9 -10 -9 -9 -8 -8
-13 -13 -13 -12 -12 -13 -14 -14 -18 -21 -23 -24 -23 -22 -20 -18 -16 -16 -15 -14 -13 -13 -12 -12 -11 -11 -11 -11 -11 -10 -11 -10 -11 -11 -11 -12 -10 -9 -9 -9 -9 -9 -9 -8 -9
-13 -14 -15 -14 -15 -17 -19 -21 -22 -23 -24 -24 -23 -23 -23 -22 -21 -19 -17 -15 -14 -14 -13 -12 -11 -11 -11 -11 -11 -10 -11 -11 -11 -11 -10 -12 -9 -10 -8 -8 -8 -8 -8 -8 -8
-15 -15 -16 -16 -17 -18 -20 -21 -22 -23 -23 -23 -23 -23 -24 -23 -23 -23 -21 -19 -17 -16 -15 -12 -12 -13 -12 -11 -11 -10 -11 -11 -11 -11 -11 -10 -12 -6 -8 -8 -8 -8 -8 -9 -9
-16 -16 -17 -18 -18 -19 -21 -21 -22 -22 -22 -23 -23 -23 -24 -23 -23 -22 -22 -22 -20 -19 -15 -13 -15 -15 -13 -13 -12 -11 -11 -11 -11 -11 -11 -10 -10 -6 -8 -8 -8 -8 -9 -10 -9
-16 -17 -17 -18 -19 -20 -21 -21 -22 -23 -24 -23 -23 -23 -23 -23 -23 -22 -22 -22 -22 -21 -19 -18 -18 -16 -14 -14 -13 -12 -12 -12 -11 -11 -9 -10 -10 -6 -8 -8 -9 -9 -9 -9 -8
-17 -17 -18 -18 -19 -20 -21 -22 -22 -23 -24 -24 -24 -24 -24 -23 -23 -22 -22 -23 -21 -21 -21 -20 -19 -16 -16 -16 -15 -14 -13 -12 -11 -10 -9 -10 -8 -7 -8 -8 -10 -10 -9 -9 -8
-18 -18 -18 -18 -19 -20 -21 -22 -23 -23 -24 -24 -24 -24 -25 -24 -23 -24 -23 -23 -23 -22 -22 -22 -21 -19 -18 -17 -16 -15 -13 -13 -12 -12 -11 -9 -8 -8 -8 -9 -10 -11 -9 -9 -9
-18 -18 -18 -19 -19 -20 -22 -22 -23 -23 -24 -24 -25 -24 -24 -24 -24 -24 -24 -23 -23 -23 -22 -22 -21 -21 -21 -20 -17 -16 -16 -16 -14 -13 -11 -9 -8 -7 -8 -9 -10 -11 -10 -9 -9
-18 -18 -18 -18 -19 -20 -22 -23 -23 -24 -24 -24 -24 -24 -24 -24 -24 -23 -23 -23 -23 -23 -23 -22 -22 -21 -21 -21 -19 -17 -17 -17 -17 -14 -12 -9 -8 -8 -10 -10 -11 -11 -10 -10 -9
-18 -18 -18 -19 -19 -20 -22 -23 -23 -23 -24 -24 -24 -24 -24 -24 -24 -24 -24 -23 -23 -23 -23 -22 -21 -21 -21 -21 -20 -20 -18 -18 -17 -13 -11 -9 -8 -8 -10 -11 -11 -11 -10 -10 -10
-18 -19 -18 -19 -19 -20 -22 -23 -24 -23 -23 -24 -24 -24 -24 -24 -23 -23 -23 -23 -23 -23 -23 -23 -22 -22 -22 -22 -21 -20 -20 -19 -17 -15 -10 -10 -8 -12 -11 -11 -11 -11 -10 -10 -9
-18 -19 -19 -19 -19 -20 -21 -23 -23 -23 -23 -23 -23 -24 -24 -24 -24 -23 -23 -23 -23 -23 -23 -23 -23 -22 -22 -22 -22 -21 -21 -19 -18 -15 -11 -9 -9 -11 -12 -11 -10 -11 -11 -10 -10
-18 -18 -18 -19 -20 -20 -21 -21 -23 -22 -23 -23 -24 -24 -24 -23 -23 -23 -23 -22 -23 -23 -23 -23 -22 -22 -22 -22 -22 -21 -20 -20 -18 -16 -12 -10 -10 -13 -12 -13 -12 -12 -11 -10 -11
-18 -19 -19 -19 -20 -20 -20 -21 -22 -23 -22 -23 -23 -24 -24 -23 -24 -23 -23 -23 -23 -23 -22 -22 -22 -22 -22 -22 -22 -21 -20 -20 -19 -17 -13 -12 -11 -13 -13 -12 -12 -11 -12 -12 -11
-18 -18 -19 -19 -20 -20 -20 -20 -22 -22 -23 -22 -23 -23 -23 -23 -24 -23 -23 -23 -22 -22 -22 -22 -22 -21 -21 -21 -21 -20 -20 -20 -19 -18 -14 -12 -12 -13 -12 -11 -11 -10 -13 -12 -12
Height
5792 5792 5792 5792 5792 5792 5793 5794 5794 5796 5796 5797 5799 5800 5802 5806 5810 5813 5819 5825 5825 5827 5829 5831 5835 5836 5837 5841 5843 5843 5839 5849 5855 5860 5865 5854 5857 5865 5865 5866 5866 5864 5865 5863 5865
5788 5787 5786 5786 5786 5785 5785 5786 5786 5786 5787 5788 5789 5791 5794 5796 5799 5804 5810 5810 5814 5815 5819 5822 5824 5824 5827 5831 5831 5832 5832 5840 5852 5853 5855 5855 5849 5859 5858 5861 5861 5864 5858 5861 5857
5782 5781 5781 5780 5779 5778 5778 5777 5777 5777 5777 5777 5778 5780 5782 5785 5789 5792 5793 5799 5802 5802 5807 5810 5811 5811 5813 5818 5822 5824 5823 5834 5842 5844 5845 5847 5844 5848 5852 5853 5855 5854 5857 5858 5857
5775 5774 5773 5772 5770 5769 5769 5768 5768 5769 5769 5769 5769 5770 5771 5775 5778 5779 5781 5784 5786 5789 5794 5799 5799 5800 5804 5811 5818 5815 5819 5821 5831 5834 5834 5837 5842 5837 5840 5847 5848 5849 5851 5852 5851
5768 5766 5764 5763 5761 5760 5759 5757 5756 5756 5756 5758 5760 5761 5761 5764 5770 5761 5765 5771 5773 5775 5781 5785 5786 5790 5792 5799 5803 5803 5811 5810 5814 5821 5825 5827 5825 5832 5832 5836 5843 5842 5843 5843 5846
5762 5760 5757 5755 5753 5751 5748 5746 5745 5744 5744 5743 5743 5746 5750 5754 5746 5748 5750 5756 5759 5762 5765 5768 5773 5777 5779 5784 5788 5796 5794 5801 5803 5808 5813 5814 5817 5820 5826 5832 5833 5832 5833 5836 5836
5755 5752 5750 5747 5744 5740 5738 5735 5734 5732 5731 5730 5730 5730 5735 5736 5734 5738 5738 5741 5744 5748 5752 5754 5756 5758 5767 5772 5778 5780 5780 5785 5793 5798 5801 5807 5803 5808 5824 5825 5823 5824 5825 5826 5827
5748 5745 5742 5738 5735 5732 5728 5725 5723 5720 5717 5716 5715 5716 5720 5713 5718 5720 5724 5728 5730 5733 5739 5741 5741 5747 5751 5759 5764 5766 5768 5773 5786 5790 5794 5797 5789 5809 5813 5812 5813 5816 5816 5816 5818
5741 5738 5734 5730 5725 5721 5717 5713 5708 5706 5701 5697 5697 5698 5698 5698 5698 5703 5708 5711 5714 5719 5722 5723 5726 5735 5740 5746 5750 5752 5758 5763 5776 5782 5780 5783 5779 5796 5801 5803 5802 5802 5803 5805 5808
5735 5730 5725 5721 5717 5711 5705 5699 5693 5688 5682 5675 5676 5680 5677 5673 5681 5686 5687 5692 5696 5699 5705 5708 5711 5719 5729 5734 5738 5747 5754 5757 5760 5768 5769 5772 5768 5781 5787 5788 5787 5791 5795 5797 5798
5728 5723 5717 5711 5705 5699 5692 5684 5677 5670 5655 5646 5650 5650 5651 5651 5661 5665 5667 5675 5678 5682 5686 5689 5694 5712 5728 5729 5731 5733 5734 5742 5749 5753 5759 5760 5762 5768 5775 5776 5777 5783 5787 5789 5790
5721 5715 5708 5700 5694 5685 5676 5664 5647 5634 5629 5613 5618 5617 5621 5626 5637 5642 5647 5655 5658 5664 5669 5674 5692 5707 5709 5706 5713 5720 5725 5736 5741 5744 5748 5751 5748 5757 5763 5766 5766 5776 5779 5782 5779
5714 5706 5698 5690 5681 5671 5658 5642 5626 5611 5603 5602 5600 5600 5601 5605 5612 5619 5623 5628 5635 5643 5651 5663 5683 5687 5690 5691 5701 5709 5714 5726 5727 5731 5738 5734 5737 5744 5756 5760 5765 5766 5771 5770 5771
5706 5699 5690 5681 5673 5659 5647 5635 5625 5612 5604 5601 5598 5598 5594 5591 5595 5601 5605 5610 5615 5626 5634 5651 5667 5669 5673 5678 5687 5696 5704 5711 5714 5720 5724 5730 5724 5734 5751 5753 5755 5759 5762 5761 5765
5699 5692 5683 5674 5664 5654 5645 5635 5627 5618 5612 5606 5600 5597 5594 5591 5590 5591 5593 5595 5606 5610 5617 5644 5647 5643 5654 5670 5669 5690 5688 5695 5702 5707 5711 5719 5717 5734 5740 5742 5749 5754 5751 5755 5758
5692 5685 5676 5668 5658 5650 5640 5632 5623 5618 5610 5606 5599 5596 5595 5592 5590 5587 5591 5590 5594 5600 5613 5623 5619 5627 5646 5649 5657 5673 5675 5682 5690 5694 5695 5716 5716 5723 5731 5739 5743 5745 5745 5747 5751
5686 5679 5671 5663 5654 5643 5636 5627 5620 5610 5604 5600 5595 5593 5590 5590 5589 5587 5587 5586 5590 5595 5600 5601 5607 5618 5630 5635 5646 5656 5661 5668 5676 5677 5696 5707 5707 5719 5727 5733 5734 5734 5738 5743 5743
5682 5673 5667 5658 5648 5639 5631 5622 5614 5607 5600 5595 5589 5588 5584 5584 5584 5583 5585 5582 5587 5588 5591 5593 5603 5610 5618 5620 5632 5640 5648 5658 5667 5674 5688 5694 5701 5710 5721 5726 5724 5728 5734 5737 5737
5677 5669 5663 5653 5644 5634 5624 5615 5608 5603 5597 5590 5585 5582 5577 5578 5578 5579 5579 5580 5581 5581 5586 5588 5594 5599 5607 5612 5619 5630 5634 5649 5652 5663 5672 5684 5694 5702 5714 5721 5719 5724 5729 5732 5732
5673 5664 5659 5650 5641 5628 5620 5612 5604 5598 5593 5588 5582 5578 5575 5575 5575 5575 5576 5574 5576 5578 5581 5585 5590 5596 5598 5599 5609 5621 5628 5636 5642 5653 5661 5675 5684 5692 5709 5714 5714 5718 5723 5726 5727
5668 5660 5654 5646 5636 5626 5616 5609 5602 5596 5591 5586 5582 5577 5574 5574 5573 5572 5574 5573 5574 5575 5576 5580 5583 5590 5593 5594 5605 5610 5619 5627 5631 5638 5653 5669 5676 5688 5706 5706 5708 5711 5718 5721 5722
5663 5656 5649 5641 5634 5623 5612 5604 5599 5594 5588 5584 5579 5575 5572 5571 5571 5570 5569 5569 5569 5571 5573 5573 5574 5580 5584 5588 5591 5597 5607 5612 5618 5634 5647 5659 5670 5686 5698 5699 5701 5707 5712 5716 5717
5659 5651 5645 5637 5628 5621 5610 5601 5595 5590 5587 5583 5578 5574 5571 5570 5569 5567 5568 5567 5566 5567 5570 5570 5570 5573 5577 5581 5581 5584 5593 5600 5610 5624 5637 5647 5670 5679 5685 5690 5694 5698 5707 5709 5710
5656 5648 5642 5633 5625 5616 5608 5601 5594 5588 5585 5581 5577 5573 5570 5568 5565 5563 5563 5565 5563 5563 5563 5564 5566 5566 5568 5570 5570 5577 5583 5593 5601 5613 5631 5644 5662 5671 5678 5686 5689 5691 5700 5704 5706
5653 5645 5637 5631 5625 5615 5606 5597 5591 5587 5583 5580 5576 5571 5568 5566 5563 5560 5557 5557 5560 5561 5561 5561 5561 5560 5559 5560 5560 5569 5577 5584 5591 5606 5619 5638 5652 5664 5671 5676 5682 5687 5696 5699 5703
5649 5642 5635 5629 5622 5614 5606 5598 5591 5585 5582 5579 5575 5570 5566 5561 5556 5552 5551 5552 5555 5557 5558 5558 5557 5555 5554 5555 5557 5564 5572 5577 5585 5597 5609 5627 5645 5654 5660 5667 5673 5679 5691 5696 5700
5647 5638 5632 5626 5620 5614 5606 5598 5591 5586 5581 5576 5573 5570 5564 5559 5552 5547 5546 5550 5553 5555 5555 5554 5554 5552 5551 5551 5553 5560 5564 5572 5581 5595 5608 5621 5640 5649 5654 5662 5668 5675 5687 5694 5698
Wind_Speed
22 23 24 25 26 28 32 34 35 37 39 40 40 44 53 61 62 59 58 51 55 54 50 49 49 49 51 48 42 47 56 52 48 44 40 35 40 33 36 35 34 41 30 28 30
23 25 26 28 29 30 31 31 35 40 41 40 41 42 43 56 62 63 59 57 56 56 55 57 51 52 54 48 51 54 59 53 44 44 43 35 47 31 36 39 43 29 33 27 30
27 28 29 31 32 32 32 33 35 36 38 43 45 45 44 43 50 58 64 66 63 60 59 61 64 65 64 57 59 60 64 54 49 45 44 41 41 41 39 40 40 44 37 34 33
28 30 31 33 35 36 38 39 40 39 38 40 42 48 49 46 50 51 54 59 65 71 62 59 62 62 67 63 59 61 62 60 50 51 49 52 53 52 42 36 36 39 41 34 36
31 32 33 35 36 37 39 41 42 43 43 43 43 45 46 51 49 58 59 58 57 68 77 72 70 66 68 65 65 66 55 61 57 56 54 50 54 46 45 42 34 38 42 43 42
28 31 33 34 35 36 38 40 42 44 46 47 47 46 46 46 54 56 59 57 59 60 67 78 77 78 76 71 69 66 66 62 62 60 55 52 50 45 41 38 40 42 43 44 44
26 28 29 31 33 35 37 39 42 43 45 47 48 51 48 50 55 55 57 59 60 58 61 66 66 72 77 76 73 73 76 74 63 60 55 50 55 50 39 40 44 45 45 45 47
25 27 29 32 35 37 40 42 44 45 48 49 50 50 50 57 55 56 56 57 59 60 59 60 62 63 65 65 63 65 68 69 55 58 59 55 54 45 43 46 47 44 44 48 44
28 30 33 35 37 39 42 45 48 52 56 57 57 55 55 57 58 58 58 59 60 62 63 64 65 62 61 61 62 62 61 61 56 60 63 63 50 48 49 48 49 48 44 39 36
30 32 34 37 40 45 49 52 55 57 60 62 63 63 64 66 62 61 62 62 63 64 65 66 66 65 63 62 61 58 56 55 54 50 49 54 52 47 41 39 41 42 32 29 28
33 36 38 41 44 47 50 56 62 65 70 75 73 68 67 70 67 67 66 64 66 67 67 69 70 63 56 57 58 59 60 56 51 49 47 44 46 45 38 39 39 33 29 28 28
34 36 38 41 48 52 57 62 69 70 68 54 58 63 69 64 70 70 70 68 67 68 70 70 62 58 61 64 62 60 59 53 51 51 48 45 45 41 38 39 37 27 30 27 31
34 37 40 44 50 56 62 69 62 46 29 20 20 22 32 45 54 56 61 66 67 68 69 67 61 61 63 67 65 62 60 54 54 52 47 51 48 43 38 36 30 30 29 29 29
35 38 41 46 50 55 57 52 31 29 8 8 17 10 14 17 26 41 55 61 65 66 65 66 61 63 67 67 65 64 61 58 56 54 51 48 51 47 32 33 33 29 28 32 26
36 38 41 46 49 52 43 41 27 28 30 19 12 12 18 9 8 19 35 50 51 58 64 60 62 68 68 63 67 60 63 61 59 58 57 52 53 30 34 33 28 24 32 26 18
37 39 42 45 49 47 39 36 30 34 35 19 22 13 12 13 14 20 23 31 37 46 55 59 60 61 63 62 64 61 64 64 62 60 62 46 48 20 29 24 20 25 26 21 18
37 38 41 44 47 45 37 33 30 34 27 22 22 25 21 14 13 17 22 16 15 19 38 51 51 54 58 62 62 62 63 62 63 66 54 47 48 24 18 16 23 28 23 17 19
36 38 40 43 46 44 37 31 30 28 26 18 15 19 25 21 17 19 20 28 17 15 24 30 42 51 54 55 58 61 62 63 62 61 57 56 48 36 26 19 24 20 17 14 15
36 38 38 41 44 44 37 32 29 26 26 24 24 24 17 18 20 13 19 21 18 22 20 23 22 37 47 51 57 56 64 60 62 60 61 55 48 44 33 29 30 14 15 9 12
32 37 38 38 42 46 36 32 26 25 23 24 20 20 13 5 14 19 9 20 20 21 16 19 26 22 27 44 54 55 56 54 59 60 61 56 51 45 30 29 26 17 17 11 12
32 33 36 38 42 43 36 31 21 23 23 22 20 14 12 9 12 15 12 13 19 23 24 26 25 26 24 30 44 52 54 55 56 60 61 55 51 42 25 25 23 18 14 9 10
34 33 34 37 39 45 38 31 21 21 23 19 19 17 11 10 9 12 9 13 16 17 20 25 29 32 27 37 38 46 54 60 60 60 58 57 49 42 30 31 27 13 16 10 10
32 31 34 37 39 43 39 29 22 19 18 14 14 14 8 12 13 14 12 17 8 12 28 22 21 21 19 32 46 46 53 62 62 60 59 57 43 30 35 32 29 15 18 14 7
34 31 29 34 38 43 45 31 18 20 17 16 13 12 9 12 18 19 21 17 10 7 11 19 15 17 20 27 40 50 45 57 64 63 58 54 45 38 36 31 28 21 19 14 13
36 33 31 32 32 38 44 41 19 16 17 17 12 16 16 11 14 21 25 21 17 12 11 10 13 17 15 22 35 49 46 45 67 63 63 55 49 42 36 29 27 17 15 10 12
38 31 27 29 30 36 40 38 22 21 20 14 15 16 17 18 19 16 20 19 11 13 9 13 9 8 3 12 29 44 47 47 64 64 64 59 52 40 39 38 29 22 17 17 14
38 35 28 29 27 31 36 37 26 20 23 18 18 19 23 19 16 13 4 8 5 6 7 7 8 8 7 8 18 44 47 46 59 61 62 61 55 46 44 40 33 29 24 19 17
Wind_Direction
276 275 273 270 267 260 251 251 257 256 256 255 250 248 240 235 238 239 240 241 239 237 228 229 230 230 231 229 230 235 239 236 240 242 250 239 245 238 247 234 245 253 254 265 267
278 277 276 274 271 267 265 260 254 252 252 251 251 250 249 240 237 238 237 239 240 240 238 236 231 229 228 229 233 237 241 242 247 249 249 235 250 238 235 247 245 244 243 259 266
283 282 281 280 278 275 272 268 264 259 257 254 249 249 247 245 239 242 238 239 241 242 238 237 235 238 229 225 235 236 244 247 242 247 250 252 261 258 254 247 241 246 255 262 255
284 283 282 281 279 278 277 276 273 268 261 257 255 250 245 242 242 243 240 243 243 240 238 238 240 241 246 240 247 255 246 248 253 252 257 259 262 255 258 255 256 255 262 252 263
294 293 291 288 286 283 280 278 276 274 272 267 257 253 251 246 244 245 240 241 243 238 240 242 242 245 251 256 252 261 255 254 258 255 258 259 253 254 252 259 264 268 261 261 264
289 289 288 288 287 284 282 279 275 272 271 270 267 263 253 250 248 248 246 242 241 240 240 242 243 244 246 249 252 257 258 256 256 257 261 258 254 251 251 259 265 270 269 263 266
299 295 294 293 290 290 288 285 280 277 272 266 263 264 260 253 251 248 247 247 246 242 241 243 244 245 247 250 252 252 254 257 252 256 260 255 258 259 270 265 267 268 268 269 270
305 304 302 299 298 296 293 291 288 284 280 275 269 261 257 254 250 249 248 247 247 246 243 240 242 244 246 248 249 252 253 254 254 259 261 252 256 265 268 266 269 268 264 264 266
312 309 305 302 299 297 293 288 285 284 282 277 271 267 260 254 251 247 244 244 244 242 243 243 241 240 242 245 247 248 250 254 256 257 260 256 260 265 262 264 267 264 264 267 270
312 309 305 301 297 295 293 290 287 282 277 271 267 265 259 255 250 247 245 240 241 242 241 241 242 242 241 242 246 251 256 254 255 254 255 258 262 265 259 260 257 260 262 263 267
312 309 307 305 305 304 301 299 296 289 285 277 270 264 253 253 252 247 245 242 240 238 239 240 240 241 245 247 245 246 246 248 250 254 254 258 257 255 256 252 252 254 259 261 261
314 312 314 313 312 312 309 309 308 300 285 278 268 260 256 247 245 245 243 240 240 240 239 239 241 240 240 242 243 242 246 245 249 252 254 257 258 250 245 245 254 259 253 256 257
322 325 326 326 324 323 325 326 327 317 313 258 277 265 258 252 243 238 238 235 234 235 237 238 237 236 237 239 241 241 243 243 247 249 249 254 252 248 241 247 256 259 257 256 259
326 329 334 335 334 337 340 340 357 348 347 309 225 270 252 248 237 234 235 232 229 231 233 234 233 235 236 236 237 237 241 241 243 246 247 247 250 249 242 244 243 250 253 256 269
330 333 337 339 342 339 341 345 329 350 343 345 343 342 348 322 244 230 227 230 230 231 227 229 228 230 230 233 236 235 237 238 240 242 245 245 252 237 241 239 242 248 255 269 264
331 335 338 342 343 340 335 335 335 315 312 311 318 330 332 320 330 218 208 240 238 233 231 223 225 226 228 229 232 232 235 235 236 239 240 239 250 232 236 239 234 238 252 258 259
330 334 338 342 344 343 332 333 335 330 327 298 294 299 296 290 280 284 233 214 233 234 221 225 224 221 222 227 227 228 231 233 234 235 238 236 241 238 224 222 234 241 253 262 258
329 330 337 340 344 343 335 331 338 335 327 340 315 320 291 285 289 281 238 247 229 197 215 224 222 223 219 221 222 223 227 231 234 236 236 236 236 232 222 231 244 246 247 258 267
328 328 335 340 346 343 342 334 333 336 345 335 352 329 288 270 277 273 256 222 224 193 201 220 210 215 219 222 219 218 223 226 229 230 233 232 230 231 229 223 246 234 244 251 257
329 329 335 340 343 348 344 338 331 337 339 337 326 334 338 259 274 277 254 243 241 223 228 231 218 211 225 221 219 216 220 219 226 226 229 228 228 228 220 223 234 227 246 239 256
332 330 334 341 345 351 346 343 339 341 340 334 337 316 310 300 297 279 266 247 241 253 263 258 252 234 235 235 221 219 214 218 219 224 224 226 226 224 202 215 214 206 216 214 252
335 331 338 342 350 353 351 348 345 342 339 335 337 332 288 275 289 289 293 254 264 241 240 250 252 249 233 226 218 218 212 214 215 220 221 222 217 221 211 211 220 218 195 191 225
339 337 339 342 351 357 356 349 336 331 338 343 337 343 290 277 270 262 255 284 297 238 245 240 247 242 231 221 219 213 216 209 212 213 217 218 208 189 205 198 209 205 191 213 257
346 342 339 344 351 357 357 352 341 334 344 344 344 340 321 295 279 271 263 276 246 290 269 245 245 261 257 222 221 215 213 210 210 211 211 212 201 199 194 192 202 193 192 208 250
352 346 343 346 353 358 357 356 346 359 346 1 341 342 333 305 287 279 279 265 253 261 276 274 267 268 254 222 220 216 202 211 208 208 209 208 199 182 180 182 196 198 202 214 243
351 348 341 346 351 355 360 0 3 355 1 354 357 350 347 337 327 310 265 270 235 265 266 273 252 249 235 242 225 212 202 207 208 206 205 204 187 175 181 192 197 198 213 225 227
351 351 347 345 346 355 359 0 360 357 353 350 358 7 2 350 347 348 256 228 266 250 237 263 235 318 145 201 221 206 213 207 206 204 205 201 179 181 187 193 191 195 199 219 209